sat.trackr.live / text

‹ back to catalog

STARLINK-3252

NORAD 49733 · 2021-115K

PAYLOAD ACTIVE UNKNOWN

§ Identity

Operator
Country
US
Launch date
2021-12-02
Launch site
AFETR
Launch vehicle
Mass (kg)
RCS (m²)

Purposes: comms

External: N2YO · Heavens-Above · Gunter

§ Orbital elements

Epoch: 2026-09-09T17:51:11.640672Z

Period
94.01 min
Inclination
53.1605°
Eccentricity
0.0001092
Mean motion
15.31696511 rev/d
Perigee alt
470.0 km
Apogee alt
471.5 km
Semi-major
6,848.9 km
B*
-6.7776e-6
RAAN
41.9121°
Arg perigee
86.5229°
Mean anomaly
273.5897°
Rev number
26,332

§ Raw data

STARLINK-32521 49733U 21115K   26252.74388473 -.00000575  00000+0 -67776-5 0  99932 49733  53.1605  41.9121 0001092  86.5229 273.5897 15.31696511263325

JSON: /api/v1/satellites/49733 · /tle

For live sub-satellite position, see the globe view (requires WebGL).

§ Visibility from observer

Set your observer location to see the next 7 days of passes ≥ 10°. The values pass through the URL so the page stays shareable.

No JS? Fill the form by hand. The geolocation button needs JavaScript.